Weather History for Moose Lake, MN

Change the Weather History Date:

Wednesday, April 10, 2013

  Actual Average Record
Temperature  
Mean Temperature 34 °F -  
Max Temperature 37 °F 51 °F 84 °F (1977)
Min Temperature 30 °F 24 °F 11 °F (1962)
Degree Days  
Heating Degree Days 32    
Moisture  
Dew Point 11 °F    
Average Humidity 41    
Maximum Humidity 64    
Minimum Humidity 24    
Precipitation  
Precipitation 0.00 in - - ()
Sea Level Pressure  
Sea Level Pressure 30.11 in    
Wind  
Wind Speed 6 mph (NE)    
Max Wind Speed 17 mph    
Max Gust Speed 28 mph    
Visibility 10 miles    
Events      
Averages and records for this station are not official NWS values.
T = Trace of Precipitation, MM = Missing Value Source: NWS Daily Summary

Daily Weather History Graph

Daily Weather History Graph

Search for Another Location

Airport:

Trip Planner

Search our weather history database for the weather conditions in past years. The results will help you decide how hot, cold, wet, or windy it might be!

Date:

Astronomy

Apr. 10, 2013 Rise Set
Actual Time 6:33 AM CDT 7:52 PM CDT
Civil Twilight 6:02 AM CDT 8:23 PM CDT
Nautical Twilight 5:24 AM CDT 9:01 PM CDT
Astronomical Twilight 4:44 AM CDT 9:41 PM CDT
Moon 6:27 AM CDT (4/10) 8:32 PM CDT (4/10)
Length of Visible Light 14h 21m
Length of Day
13h 19m
New Moon, 0% of the Moon is Illuminated
Apr 10
New Moon
Apr 18
First Quarter
Apr 25
Full
May 2
Last Quarter
May 9
New

Hourly Weather History & Observations

Time (CDT) Temp. Windchill Dew Point Humidity Pressure Visibility Wind Dir Wind Speed Gust Speed Precip Events Conditions
12:13 AM 32.0 °F - 19.4 °F 60% 30.19 in 10.0 mi Calm Calm - N/A   Clear
12:33 AM 32.0 °F - 19.4 °F 60% 30.21 in 10.0 mi Calm Calm - N/A   Scattered Clouds
12:54 AM 32.0 °F - 19.4 °F 60% 30.21 in 10.0 mi Calm Calm - N/A   Scattered Clouds
1:13 AM 32.0 °F - 19.4 °F 60% 30.23 in 10.0 mi Calm Calm - N/A   Mostly Cloudy
1:33 AM 32.0 °F - 19.4 °F 60% 30.22 in 10.0 mi Calm Calm - N/A   Overcast
1:53 AM 32.0 °F - 19.4 °F 60% 30.21 in 10.0 mi Calm Calm - N/A   Overcast
2:13 AM 32.0 °F - 19.4 °F 60% 30.21 in 10.0 mi Calm Calm - N/A   Mostly Cloudy
2:53 AM 32.0 °F - 19.4 °F 60% 30.16 in 10.0 mi Calm Calm - N/A   Clear
3:14 AM 30.2 °F - 19.4 °F 64% 30.17 in 10.0 mi Calm Calm - N/A   Clear
3:33 AM 30.2 °F 23.4 °F 19.4 °F 64% 30.15 in 10.0 mi NE 6.9 mph - N/A   Clear
6:33 AM 30.2 °F 26.7 °F 17.6 °F 60% 30.14 in 10.0 mi NE 3.5 mph - N/A   Mostly Cloudy
6:53 AM 30.2 °F 24.3 °F 17.6 °F 60% 30.11 in 10.0 mi NE 5.8 mph - N/A   Scattered Clouds
7:13 AM 30.2 °F 26.7 °F 17.6 °F 60% 30.11 in 10.0 mi NE 3.5 mph - N/A   Clear
7:33 AM 30.2 °F - 15.8 °F 55% 30.12 in 10.0 mi Calm Calm - N/A   Scattered Clouds
7:53 AM 32.0 °F 25.6 °F 15.8 °F 51% 30.13 in 10.0 mi NE 6.9 mph - N/A   Overcast
8:13 AM 32.0 °F - 15.8 °F 51% 30.14 in 10.0 mi Calm Calm - N/A   Overcast
8:33 AM 32.0 °F 27.5 °F 14.0 °F 48% 30.13 in 10.0 mi NE 4.6 mph - N/A   Overcast
8:53 AM 32.0 °F - 10.4 °F 41% 30.13 in 10.0 mi Calm Calm - N/A   Scattered Clouds
9:13 AM 32.0 °F 24.2 °F 10.4 °F 41% 30.15 in 10.0 mi NE 9.2 mph - N/A   Mostly Cloudy
9:33 AM 33.8 °F 25.3 °F 10.4 °F 38% 30.14 in 10.0 mi ENE 11.5 mph - N/A   Mostly Cloudy
9:53 AM 33.8 °F 27.0 °F 8.6 °F 35% 30.15 in 10.0 mi NE 8.1 mph - N/A   Scattered Clouds
10:13 AM 33.8 °F 23.9 °F 6.8 °F 32% 30.14 in 10.0 mi ENE 15.0 mph 20.7 mph N/A   Mostly Cloudy
10:33 AM 33.8 °F 26.4 °F 6.8 °F 32% 30.15 in 10.0 mi ENE 9.2 mph 19.6 mph N/A   Scattered Clouds
10:53 AM 33.8 °F 26.4 °F 6.8 °F 32% 30.17 in 10.0 mi NE 9.2 mph - N/A   Mostly Cloudy
11:13 AM 33.8 °F 25.8 °F 6.8 °F 32% 30.16 in 10.0 mi NE 10.4 mph 19.6 mph N/A   Scattered Clouds
11:33 AM 35.6 °F 27.1 °F 8.6 °F 33% 30.15 in 10.0 mi NE 12.7 mph 19.6 mph N/A   Scattered Clouds
12:13 PM 35.6 °F 26.6 °F 8.6 °F 33% 30.14 in 10.0 mi NE 13.8 mph 21.9 mph N/A   Clear
12:33 PM 35.6 °F 26.2 °F 8.6 °F 33% 30.13 in 10.0 mi NE 15.0 mph 26.5 mph N/A   Scattered Clouds
12:53 PM 35.6 °F 25.5 °F 6.8 °F 30% 30.12 in 10.0 mi NE 17.3 mph 25.3 mph N/A   Scattered Clouds
1:13 PM 35.6 °F 25.9 °F 6.8 °F 30% 30.11 in 10.0 mi NE 16.1 mph 23.0 mph N/A   Mostly Cloudy
1:33 PM 35.6 °F 25.9 °F 5.0 °F 28% 30.11 in 10.0 mi NE 16.1 mph 27.6 mph N/A   Overcast
1:53 PM 35.6 °F 28.0 °F 5.0 °F 28% 30.11 in 10.0 mi ENE 10.4 mph 24.2 mph N/A   Overcast
2:13 PM 35.6 °F 25.9 °F 5.0 °F 28% 30.11 in 10.0 mi NE 16.1 mph 23.0 mph N/A   Overcast
2:33 PM 35.6 °F 28.0 °F 5.0 °F 28% 30.13 in 10.0 mi NE 10.4 mph 21.9 mph N/A   Overcast
2:53 PM 35.6 °F 26.2 °F 3.2 °F 26% 30.13 in 10.0 mi ENE 15.0 mph 20.7 mph N/A   Overcast
3:13 PM 35.6 °F 26.6 °F 3.2 °F 26% 30.14 in 10.0 mi ENE 13.8 mph 19.6 mph N/A   Overcast
3:33 PM 37.4 °F 30.8 °F 3.2 °F 24% 30.14 in 10.0 mi ENE 9.2 mph - N/A   Overcast
3:53 PM 37.4 °F 32.8 °F 3.2 °F 24% 30.14 in 10.0 mi ENE 5.8 mph - N/A   Overcast
4:14 PM 37.4 °F 30.3 °F 3.2 °F 24% 30.12 in 10.0 mi ENE 10.4 mph - N/A   Overcast
4:33 PM 35.6 °F 27.1 °F 3.2 °F 26% 30.11 in 10.0 mi NE 12.7 mph 19.6 mph N/A   Overcast
4:53 PM 37.4 °F 30.3 °F 5.0 °F 26% 30.08 in 10.0 mi ENE 10.4 mph 20.7 mph N/A   Overcast
5:13 PM 37.4 °F 30.3 °F 6.8 °F 28% 30.07 in 10.0 mi NE 10.4 mph 17.3 mph N/A   Mostly Cloudy
5:33 PM 37.4 °F 32.1 °F 8.6 °F 30% 30.07 in 10.0 mi ENE 6.9 mph 17.3 mph N/A   Overcast
5:53 PM 35.6 °F 28.0 °F 8.6 °F 33% 30.06 in 10.0 mi ENE 10.4 mph 17.3 mph N/A   Overcast
6:13 PM 35.6 °F 30.7 °F 8.6 °F 33% 30.08 in 10.0 mi ENE 5.8 mph - N/A   Overcast
6:33 PM 35.6 °F 29.2 °F 6.8 °F 30% 30.07 in 10.0 mi NE 8.1 mph - N/A   Overcast
6:53 PM 35.6 °F 29.2 °F 6.8 °F 30% 30.05 in 10.0 mi ENE 8.1 mph - N/A   Overcast
7:13 PM 33.8 °F 25.3 °F 6.8 °F 32% 30.05 in 10.0 mi ENE 11.5 mph 17.3 mph N/A   Overcast
7:33 PM 33.8 °F 26.4 °F 5.0 °F 30% 30.06 in 10.0 mi ENE 9.2 mph 19.6 mph N/A   Overcast
7:53 PM 33.8 °F 27.7 °F 5.0 °F 30% 30.06 in 10.0 mi ENE 6.9 mph - N/A   Overcast
8:13 PM 33.8 °F 25.8 °F 6.8 °F 32% 30.04 in 10.0 mi NE 10.4 mph - N/A   Scattered Clouds
8:33 PM 32.0 °F 24.2 °F 8.6 °F 38% 30.03 in 10.0 mi NE 9.2 mph 18.4 mph N/A   Clear
8:53 PM 32.0 °F 23.0 °F 8.6 °F 38% 30.01 in 10.0 mi NE 11.5 mph - N/A   Scattered Clouds
9:13 PM 32.0 °F 22.5 °F 10.4 °F 41% 30.01 in 10.0 mi ENE 12.7 mph 18.4 mph N/A   Scattered Clouds
9:33 PM 32.0 °F 23.0 °F 12.2 °F 44% 30.01 in 10.0 mi ENE 11.5 mph 20.7 mph N/A   Mostly Cloudy
9:53 PM 32.0 °F 26.4 °F 12.2 °F 44% 30.02 in 10.0 mi ENE 5.8 mph 18.4 mph N/A   Overcast
10:13 PM 32.0 °F 24.2 °F 12.2 °F 44% 30.02 in 10.0 mi ENE 9.2 mph 17.3 mph N/A   Overcast
10:33 PM 32.0 °F 24.8 °F 14.0 °F 48% 30.02 in 10.0 mi ENE 8.1 mph 18.4 mph N/A   Overcast
10:53 PM 32.0 °F 23.6 °F 14.0 °F 48% 30.02 in 10.0 mi ENE 10.4 mph 21.9 mph N/A   Overcast
11:13 PM 32.0 °F 24.8 °F 14.0 °F 48% 30.02 in 10.0 mi ENE 8.1 mph 19.6 mph N/A   Overcast
11:33 PM 32.0 °F 23.6 °F 14.0 °F 48% 30.03 in 10.0 mi ENE 10.4 mph 18.4 mph N/A   Overcast
11:53 PM 32.0 °F 24.2 °F 14.0 °F 48% 30.02 in 10.0 mi ENE 9.2 mph 16.1 mph N/A   Overcast